Content
SEND FEEDBACK

Daily
Averages
Monthly
Summary
United States of America

POTTS JUNCTION, GUAM


Home > North America > United States > Guam
Elevation: 360 feet     Latitude: 13 33N     Longitude: 144 50E

WEATHER
 
SELECT A DAY
Number of Records: 215,487;   Date Range: 1/1/95 - 12/16/14
 
SHARE

PRINT THIS DATA

[ ← Previous Day ]
WEATHER ALMANAC - OCTOBER 8, 2013
[ Next Day → ]
[ °C ]   °F
We're sorry. There is no daily almanac available for Potts Junction, Guam on October 8, 2013.
WEATHER BY HOUR - OCTOBER 8, 2013
[ °C ]   °F
Local TimeTemperatureDewpointHumidityBarometerVisibilityWind DirectionWind SpeedGust SpeedPrecipitationEventsConditions
1:54 AM78.1 °F77.0 °F96 %29.69 in10.0 miCalmClear
2:54 AM79.0 °F77.0 °F94 %29.68 in10.0 miCalmClear
3:54 AM78.1 °F75.9 °F93 %29.68 in10.0 miCalmClear
4:54 AM77.0 °F75.9 °F96 %29.68 in10.0 miCalmClear
5:54 AM77.0 °F75.9 °F96 %29.70 in10.0 miCalmClear
6:54 AM79.0 °F77.0 °F94 %29.72 in10.0 miCalmClear
7:54 AM82.0 °F79.0 °F90 %29.73 in10.0 miCalmClear
8:54 AM82.9 °F78.1 °F85 %29.75 in10.0 miNNW (330°)5.8 mphScattered Clouds
9:15 AM84.2 °F78.8 °F84 %29.77 in10.0 miNNW (340°)5.8 mphMostly Cloudy
9:27 AM84.2 °F78.8 °F84 %29.77 in10.0 miNNW (330°)3.5 mphMostly Cloudy
9:34 AM84.2 °F77.0 °F79 %29.77 in10.0 miNNW (340°)3.5 mphMostly Cloudy
9:54 AM84.9 °F78.1 °F80 %29.75 in10.0 miCalmMostly Cloudy
10:54 AM84.9 °F77.0 °F77 %29.73 in10.0 miNW (320°)5.8 mphScattered Clouds
11:54 AM86.0 °F77.0 °F74 %29.70 in10.0 miNNW (340°)6.9 mphPartly Cloudy
12:54 PM86.0 °F77.0 °F74 %29.68 in10.0 miNorth (350°)8.1 mphPartly Cloudy
1:54 PM84.9 °F77.0 °F77 %29.67 in10.0 miNNW (340°)9.2 mphPartly Cloudy
2:54 PM84.9 °F78.1 °F80 %29.66 in10.0 miNorth (350°)6.9 mphPartly Cloudy
3:54 PM84.0 °F77.0 °F79 %29.68 in10.0 miNNW (330°)5.8 mphPartly Cloudy
4:54 PM84.0 °F77.0 °F79 %29.68 in10.0 miNNW (340°)3.5 mphPartly Cloudy
5:54 PM82.0 °F77.0 °F85 %29.69 in10.0 miNorth (350°)3.5 mphPartly Cloudy
6:54 PM81.0 °F77.0 °F88 %29.70 in10.0 miNW (320°)3.5 mphClear
7:54 PM82.0 °F75.9 °F82 %29.72 in10.0 miNE (50°)3.5 mphClear
8:54 PM80.1 °F77.0 °F90 %29.73 in10.0 miCalmClear
9:54 PM80.1 °F77.0 °F90 %29.74 in10.0 miCalmClear
10:54 PM80.1 °F77.0 °F90 %29.74 in10.0 miCalmPartly Cloudy
11:54 PM79.0 °F77.0 °F94 %29.74 in10.0 miCalmClear
Hourly data recorded from PGUM, located miles away from Potts Junction, Guam







STORIES FROM OUR PARTNERS